Location: Keeble Observatory
(37.7625°N, 77.4755°W)
Time: 16:43:10
(UTC-05:00)

Daily predictions for brighter satellites

Satellite Brightness Start Highest point End
(mag) Time Altitude Azimuth Time Altitude Azimuth Time Altitude Azimuth
Cosmos 1980 Rocket 3.7 17:14:48 10° SE 17:18:25 17° E 17:22:01 10° ENE
NOSS 3-2 (A) 4.4 17:15:51 10° NNW 17:22:58 43° NE 17:30:40 10° ESE
SJ-7 4.4 17:20:11 10° SSE 17:24:07 60° ENE 17:28:03 10° N
IDEFIX/ARIANE 42P 4.3 17:20:46 10° SSW 17:25:31 37° W 17:30:18 10° NNW
Cosmos 1656 3.8 17:22:47 10° S 17:28:16 60° ESE 17:33:42 10° NNE
Cosmos 2297 Rocket 2.3 17:24:23 10° NNW 17:29:56 53° ENE 17:35:26 10° SE
NOSS 3-2 (C) 4.5 17:24:16 10° NNW 17:31:12 38° NE 17:38:41 10° ESE
Cosmos 1666 2.7 17:30:38 10° N 17:34:23 85° W 17:38:06 10° S
Cosmos 2266 Rocket 4.1 17:29:25 10° N 17:35:20 50° E 17:41:19 10° SSE
ATLAS 3B R/B 2.6 17:28:46 10° NNW 17:35:27 76° ENE 17:41:58 10° SE
ATLAS 2AS CENTAUR R/B 3.8 17:28:09 10° SW 17:35:38 50° NW 17:43:30 10° NNE
USA 161 4.3 17:34:57 10° NNW 17:37:13 20° WNW 17:39:32 10° WSW
Cosmos 1484 Rocket 2.8 17:33:25 10° SSE 17:37:26 84° ENE 17:41:28 10° N
Cosmos 1655 Rocket 4.5 17:34:13 10° NNW 17:40:35 69° W 17:46:55 10° S
Cosmos 1455 Rocket 3.1 17:36:16 10° N 17:40:41 83° W 17:45:02 10° S
Atlas Centaur 2 3.8 17:36:00 10° WSW 17:41:07 29° SSW 17:45:18 10° SE
Cosmos 158 Rocket 3.8 17:39:53 10° NNW 17:44:57 80° ENE 17:49:52 10° SSE
Cosmos 1544 Rocket 3.9 17:40:46 10° NNW 17:45:04 67° W 17:49:22 10° S
DELTA 2 R/B (1) 3.6 17:40:23 10° W 17:45:57 74° N 17:51:01 13° E
USA 215 3.2 17:40:35 10° SE 17:47:05 73° NE 17:53:36 10° NW
USA 116 3.1 17:44:58 10° NNE 17:48:04 62° ESE 17:51:08 10° S
YAOGAN 1 2.7 17:45:11 10° SSE 17:49:21 49° ENE 17:53:31 10° N
IRS-1A Rocket 4.2 17:44:33 10° SSE 17:50:02 61° ENE 17:55:28 10° N
PSLV R/B 3.6 17:47:56 10° WNW 17:51:00 44° N 17:52:53 20° ENE
CSL-04 Debris 4.4 17:46:56 10° S 17:52:18 76° WSW 17:57:43 10° NNW
Meteor 2-4 Rocket 3.7 17:50:09 10° SSW 17:55:35 80° W 18:00:58 10° N
NOSS 3-4 (A) 3.5 17:50:51 10° SSW 17:57:01 70° ESE 18:02:56 12° NE
NOSS 3-4 (C) 3.5 17:50:57 10° SSW 17:57:06 69° ESE 18:03:00 12° NE
SL-16 R/B 4.0 17:58:57 10° ESE 18:00:36 12° ESE 18:00:36 12° ESE
METEOR-M 4.1 17:56:32 10° SSE 18:01:48 64° ENE 18:07:05 10° N
FENGYUN 3A 4.0 17:58:00 10° SE 18:02:57 39° ENE 18:07:54 10° N
ISS -1.7 18:00:53 10° WNW 18:03:49 30° SW 18:06:43 10° SSE
Cosmos 724 4.2 17:58:36 10° NNW 18:04:26 87° ENE 18:10:15 10° SSE
Cosmos 2369 4.3 17:59:21 10° SW 18:04:56 57° WNW 18:10:33 10° NNE
Cosmos 2278 4.2 17:59:29 10° SW 18:05:05 60° WNW 18:10:45 10° NNE
Cosmos 2322 Rocket 3.9 18:03:02 10° SE 18:04:44 13° ESE 18:04:44 13° ESE
RESURS DK-1 3.4 18:03:13 10° SSE 18:06:43 27° ESE 18:07:48 24° E
SJ 16-02 2.3 18:03:34 10° SW 18:07:48 48° WNW 18:12:05 10° N
COSMO-SKYMED 1 2.5 18:03:42 10° NNE 18:08:02 66° ESE 18:12:20 10° S
CENTAUR R/B 3.7 18:07:38 10° NNW 18:14:38 33° NE 18:19:24 20° E
Hubble Space Telescope 3.5 18:15:23 10° SW 18:17:13 13° SSW 18:19:01 10° S
DELTA 2 R/B (2) 4.4 18:16:31 10° WSW 18:19:10 57° SSE 18:20:08 39° ESE
Meteor 2-11 Rocket 4.4 18:13:58 10° S 18:20:04 72° E 18:26:12 10° NNE
Cosmos 1697 Rocket 2.9 18:14:42 10° SSW 18:20:20 74° WNW 18:25:54 10° NNE
NOSS 2-2 (E) 3.7 18:16:51 10° S 18:20:32 44° ESE 18:21:38 35° ENE
Cosmos 1515 3.7 18:17:52 10° S 18:21:40 81° W 18:25:17 11° N
EO 1 Del DPAF 3.1 18:22:11 17° NNE 18:25:02 85° ESE 18:28:50 10° SSW
CZ-4 R/B 2.8 18:21:40 10° SSW 18:25:17 38° W 18:28:59 10° NNW
NOSS 2-2 (C) 3.7 18:23:48 10° S 18:27:28 44° ESE 18:28:02 41° E
SPOT 3 Rocket 3.4 18:22:50 10° SSE 18:27:58 68° ENE 18:33:06 10° N
Shenzhou-11 Module 4.2 18:26:06 10° S 18:27:25 15° SSE 18:27:25 15° SSE
BREEZE-M DEB (TANK) 4.4 18:05:05 10° WNW 18:28:42 68° NNE 18:31:08 31° E
Cosmos 1553 Rocket 4.3 18:23:19 10° SSE 18:29:21 45° E 18:34:27 14° NNE
Cosmos 1025 Rocket 3.0 18:25:51 10° S 18:30:09 82° W 18:34:10 12° N
Meteor 1-15 Rocket 4.4 18:24:38 10° N 18:30:35 83° W 18:36:27 10° S
MONITOR-E 4.5 18:32:21 10° S 18:35:21 64° W 18:38:24 10° NNW
ERS-2 2.1 18:32:26 10° S 18:36:04 81° WSW 18:39:45 10° NNW
Okean 1-7 Rocket 3.4 18:31:59 10° S 18:36:22 86° E 18:39:23 20° N
Cosmos 494 Rocket 3.9 18:34:23 10° NNW 18:39:39 66° ENE 18:44:50 10° SSE
Cosmos 2084 4.1 18:36:04 10° SW 18:40:07 48° NW 18:41:44 30° N
Thor Agena Rocket 4.0 18:40:39 39° E 18:40:39 39° E 18:45:30 10° SSE
Gblst 52 Del rocket 4.3 18:36:08 10° NW 18:41:48 63° NE 18:44:12 37° ESE
Cosmos 2251 Rocket 3.7 18:37:09 10° N 18:42:13 45° ENE 18:42:21 45° ENE
Cosmos 1745 Rocket 4.3 18:38:52 10° N 18:44:43 41° ENE 18:50:36 10° SSE
Cosmos 2227 Rocket 4.3 18:42:34 10° NW 18:47:15 27° WSW 18:51:55 10° SSW
Okean 2 4.3 18:43:26 10° SSW 18:47:23 47° W 18:50:50 13° N
Cosmos 1184 Rocket 3.9 18:47:44 10° S 18:49:52 38° SSW 18:49:52 38° SSW
ALOS 2.7 18:48:37 10° S 18:53:13 62° W 18:57:52 10° NNW
FengYun 1-2 T 4.2 18:47:48 10° SSE 18:53:18 59° ENE 18:58:51 10° N
DNEPR-1 R/B 4.1 18:51:17 10° NNW 18:56:35 73° ENE 18:59:47 30° SE
Cosmos 1606 Rocket 4.3 18:57:02 10° N 19:02:52 41° S 19:05:42 10° S
Cosmos 1980 Rocket 2.7 18:56:16 10° SW 19:01:50 58° WNW 19:05:03 25° N
Cosmos 1066 Rocket 4.1 18:59:27 10° SSW 19:05:00 80° W 19:07:39 32° N
SL-8 R/B 3.7 19:00:43 10° SW 19:05:15 74° S 19:05:15 74° S
Cosmos 2344 3.4 19:23:38 10° SSW 19:31:15 68° ESE 19:31:20 68° ESE
Lacrosse 5 rocket 3.5 19:27:56 10° SW 19:29:24 22° SW 19:29:24 22° SW
DELTA 2 R/B (1) 3.9 19:26:55 10° WNW 19:31:48 60° WSW 19:31:48 60° WSW
Cosmos 2227 4.5 19:28:56 10° NNW 19:34:03 65° WNW 19:34:03 65° WNW
SL-16 R/B 3.1 19:38:49 10° SSW 19:42:32 43° SW 19:42:32 43° SW
Cosmos 2322 Rocket 3.3 19:43:15 10° SSW 19:46:37 38° SW 19:46:37 38° SW
CENTAUR R/B 3.3 19:57:55 10° NW 20:05:55 66° WSW 20:06:43 63° SSW
